Orbital Elements at Epoch 2459200.5 (2020-Dec-17.0) TDB
Reference: JPL 18 (heliocentric ecliptic J2000)
Element | Value | Uncertainty (1-sigma) | Units |
e | .2052215773850908 | 3.3276e-08 | |
a | 2.207460685922054 | 6.2658e-09 | au |
q | 1.754442121941556 | 7.4356e-08 | au |
i | 2.756802244062395 | 3.3325e-06 | deg |
node | 343.612561054393 | 6.928e-05 | deg |
peri | 60.06690294510803 | 7e-05 | deg |
M | 7.791421005055521 | 7.5805e-06 | deg |
tp | 2459174.573012131030 (2020-Nov-21.07301213) | 2.5243e-05 | TDB |
period | 1197.94779755489 3.28 | 5.1005e-06 1.396e-08 | d yr |
n | .3005139295174545 | 1.2795e-09 | deg/d |
Q | 2.660479249902552 | 7.5517e-09 | au |
|
| | Orbit Determination Parameters
Additional Information
|